Location: *
(41.7492°S, 135.4150°W)
Time: 21:47:29
(UTC+00:00)

METEOR M2 - Pass Details

Date: 03 July 2022
Orbit: 818 x 827 km, 98.4° (Epoch: 17 August)

Event Time Altitude Azimuth Distance (km) Brightness Sun altitude
Exits shadow 05:32:54 19° 256° (WSW) 1,909 ? -42.1°
Drops below altitude 10° 05:35:38 10° 286° (WNW) 2,432 ? -42.6°
Sets 05:38:36 0° 302° (WNW) 3,358 ? -43.2°
